Temperature
19 19 19 19 19 20 22 23 24 25 25 26 26 26 25 24 22 20 19 19 19 18 18 18 18 18 18 18 18 18 18 18 18 18 18 18 18 18 18 18 18 18 18 18 18 18 18 18 18
19 19 19 19 20 21 22 23 24 25 25 26 26 26 25 23 21 20 19 19 19 18 18 18 18 18 18 18 18 18 18 18 18 18 18 18 18 18 17 17 17 17 17 18 18 18 18 18 18
19 19 20 20 21 22 23 24 24 25 26 26 26 25 24 23 21 20 19 19 19 18 18 18 18 18 18 18 18 18 18 17 17 17 17 17 17 17 17 17 17 17 17 17 17 17 17 18 18
19 20 21 21 22 24 24 24 25 25 26 26 25 24 22 22 21 20 19 19 19 18 18 18 18 18 18 18 17 17 17 17 17 17 17 17 17 17 17 17 17 17 17 17 17 17 17 17 17
19 20 21 22 23 24 25 26 25 25 26 26 25 23 21 21 20 20 20 19 19 18 18 18 18 18 18 17 17 17 17 17 17 17 17 17 17 17 17 17 17 17 17 17 17 17 17 17 17
20 21 21 22 23 24 26 26 25 25 25 26 25 23 21 21 20 20 20 20 19 19 18 18 18 18 18 17 17 17 17 17 17 17 17 17 17 16 16 16 16 16 16 16 16 17 17 17 17
20 21 21 22 23 24 25 26 26 25 25 26 25 23 21 21 20 20 20 19 19 19 19 18 18 18 18 17 17 17 17 17 17 17 17 16 16 16 16 16 16 16 16 16 16 16 16 16 17
20 21 22 22 23 23 25 26 26 25 25 25 25 23 22 21 20 20 20 19 19 19 19 19 18 18 18 18 17 17 17 17 16 16 16 16 16 16 16 16 16 16 16 16 16 16 16 16 17
21 21 21 22 23 24 25 26 26 26 26 25 25 24 22 21 20 20 20 20 20 19 19 19 19 18 18 18 18 17 17 17 16 16 16 16 16 16 16 16 16 16 16 16 16 16 16 16 16
22 21 22 24 24 24 25 26 26 26 26 25 24 23 22 21 21 21 20 20 20 20 20 19 19 19 18 18 18 17 17 17 16 16 16 16 16 16 16 16 16 15 15 15 15 16 16 16 16
23 22 23 24 24 25 26 26 26 25 25 25 24 23 22 22 22 21 21 21 21 20 20 20 20 19 19 18 18 18 17 17 17 17 16 16 16 16 16 16 15 15 15 15 15 15 16 16 16
24 23 24 25 24 25 25 25 26 25 25 25 24 23 23 22 22 22 22 22 21 21 20 20 20 20 19 19 18 18 18 17 17 17 16 16 16 16 16 16 16 15 15 15 15 15 16 16 16
24 24 24 25 25 25 25 25 25 26 25 25 24 24 23 23 23 23 22 22 21 21 20 20 20 20 19 19 19 18 18 18 17 17 16 16 16 16 15 15 15 15 15 15 15 15 15 15 15
24 25 24 25 25 25 26 26 26 26 25 25 24 24 24 24 23 23 23 22 22 21 21 20 20 20 19 19 19 18 18 18 17 17 16 16 16 16 15 15 15 15 15 15 15 15 15 15 15
24 25 25 25 26 26 25 25 26 26 25 25 25 24 24 24 24 23 23 23 22 22 21 20 20 20 19 19 18 18 18 17 17 17 16 16 16 15 15 15 15 15 14 14 14 15 15 15 15
25 24 23 25 26 25 24 23 26 26 25 25 25 24 24 24 24 24 23 23 23 22 21 21 20 19 19 18 18 18 18 17 17 16 16 16 15 15 15 15 14 14 14 14 14 14 14 15 15
24 23 23 25 26 26 25 23 25 26 26 26 25 25 24 24 24 24 24 23 23 22 21 21 20 19 19 18 18 18 17 17 16 16 16 15 15 15 15 14 14 14 14 14 14 14 14 15 15
23 24 24 25 26 26 25 25 26 26 26 26 26 25 25 24 24 24 23 23 23 22 22 21 20 19 19 18 18 17 17 17 16 16 16 15 15 15 14 14 14 14 14 14 14 14 14 14 15
24 24 24 25 27 26 25 25 26 26 26 26 26 25 25 25 24 24 23 23 22 22 22 21 20 19 19 18 18 17 17 17 16 16 16 15 15 14 14 14 14 14 14 14 14 14 14 14 14
24 24 24 25 27 26 26 25 26 26 26 26 26 26 25 25 24 24 23 23 22 22 21 21 20 20 19 19 18 17 17 17 16 16 16 15 15 14 14 14 14 14 14 14 14 14 14 14 14
24 24 25 25 26 26 26 25 25 26 26 26 26 25 25 25 24 23 23 22 22 22 21 21 20 20 19 19 18 17 17 17 16 16 16 15 15 15 14 14 14 14 14 14 14 14 14 14 14
24 25 26 26 25 25 25 23 24 25 25 26 26 25 25 24 24 23 23 22 22 22 21 21 20 20 19 19 18 18 17 17 17 16 16 16 15 15 14 14 14 14 14 14 14 14 14 14 14
24 26 25 25 25 25 25 24 24 25 25 25 25 25 24 24 23 23 22 22 22 21 21 20 20 19 19 19 18 18 17 17 16 16 16 16 16 15 15 14 14 14 14 14 14 14 14 14 14
26 26 25 26 25 24 25 25 23 24 25 25 25 24 24 23 23 22 22 21 21 21 20 20 20 19 19 19 18 18 17 17 16 16 16 16 16 16 15 15 14 14 14 14 14 14 14 14 14
26 25 24 23 23 23 26 25 23 25 26 25 25 24 23 23 22 22 21 21 21 20 20 20 19 19 19 19 18 18 17 17 17 16 16 16 16 16 15 15 15 14 14 14 14 14 14 14 14
25 25 23 22 23 23 26 24 24 25 25 25 24 23 23 22 21 21 21 20 20 20 20 19 19 19 19 18 18 17 17 17 17 16 16 16 16 16 16 15 15 15 14 14 14 14 14 14 14
25 25 25 24 24 24 25 24 24 25 25 24 24 23 22 22 21 21 20 20 20 19 19 19 19 19 18 18 18 17 17 17 17 16 16 16 16 16 16 15 15 15 15 14 14 14 14 14 14
26 26 25 24 23 23 24 24 23 23 23 24 23 23 22 21 21 20 20 20 19 19 19 18 18 18 18 18 17 17 17 17 16 16 16 16 16 16 16 15 15 15 15 15 14 14 14 14 14
26 26 26 25 26 24 23 24 25 24 24 23 23 22 22 21 20 19 19 19 19 19 19 18 18 18 18 17 17 17 17 17 16 16 16 16 16 16 16 16 15 15 15 15 15 14 14 14 14
27 27 27 25 26 26 24 23 26 24 24 24 23 22 21 20 20 19 19 19 18 18 18 18 18 18 17 17 17 17 17 16 16 16 16 16 16 16 16 16 16 15 15 15 15 15 14 14 14
Wind_Speed
4 4 3 1 1 2 1 2 5 5 5 6 7 9 12 12 8 7 3 7 13 14 14 13 12 11 11 11 11 11 10 10 9 9 9 9 8 8 7 7 6 6 6 6 6 6 6 7 7
4 3 3 2 2 1 3 5 6 7 5 5 8 11 13 12 11 9 5 7 12 14 14 14 12 12 12 11 11 11 11 10 9 9 8 8 7 7 6 6 6 6 6 6 6 5 6 6 7
6 5 3 2 1 2 4 5 5 5 5 5 8 12 9 7 10 6 7 9 13 15 16 14 13 12 12 12 11 11 10 10 9 8 8 7 7 6 6 6 6 6 6 6 5 5 5 6 6
3 2 3 2 1 6 6 6 4 5 5 6 9 9 9 10 8 10 10 12 14 15 16 14 13 13 12 12 11 10 10 9 8 8 7 7 7 6 6 6 6 6 6 6 6 5 5 5 6
2 3 2 1 3 6 7 6 5 5 5 8 12 12 11 13 13 13 10 11 13 14 15 14 13 13 12 11 11 10 9 9 8 7 6 6 5 5 5 6 6 6 6 6 6 6 6 6 6
2 2 1 2 5 5 6 5 5 5 6 7 12 12 9 11 11 10 9 9 11 13 14 14 13 13 12 11 10 9 8 8 7 6 5 4 3 2 3 4 5 6 6 6 6 6 6 6 6
2 2 1 3 5 5 5 4 5 6 6 6 8 10 9 11 10 9 9 8 8 9 11 13 14 13 12 12 10 8 7 5 4 3 1 1 2 2 1 2 4 5 6 6 6 6 6 7 7
2 3 2 3 5 5 4 5 6 7 5 5 6 8 10 12 11 10 8 8 7 7 7 8 11 13 13 12 10 9 7 5 3 2 3 4 6 6 5 2 3 3 4 5 6 6 7 8 9
3 2 1 3 4 4 4 5 5 5 6 8 11 13 15 16 13 10 8 7 6 6 5 6 7 7 9 11 11 10 8 6 5 6 7 7 4 3 5 4 2 1 4 5 7 8 10 11 11
3 1 1 3 4 4 3 4 4 5 6 10 14 16 16 15 13 11 9 9 8 6 5 6 6 6 5 5 8 7 7 6 4 2 0 4 4 4 2 3 3 4 6 7 8 11 12 11 9
2 0 1 4 3 3 3 3 4 5 4 9 13 15 14 13 12 10 9 8 8 7 5 5 6 5 5 4 4 2 3 3 2 4 4 5 6 5 3 1 1 4 5 3 5 8 7 6 3
2 1 1 5 3 2 3 3 3 4 5 9 12 15 13 11 10 9 8 8 8 6 5 4 3 5 5 5 2 2 2 2 2 5 6 4 2 3 3 2 4 5 4 3 4 4 5 6 7
4 4 3 3 3 2 3 3 2 4 7 10 12 12 12 10 9 8 8 9 9 7 6 5 3 4 5 4 1 2 3 3 4 4 4 4 2 3 3 2 2 4 6 4 4 4 4 5 5
4 5 5 4 3 3 3 3 3 6 8 9 11 11 10 9 8 8 8 8 9 8 8 6 4 4 3 4 2 2 3 3 3 4 5 6 4 3 2 3 3 3 5 4 4 5 4 4 3
4 5 5 5 4 3 2 2 4 8 8 9 9 10 9 8 7 7 7 8 8 8 9 7 5 4 4 5 4 3 2 4 3 4 6 7 5 4 3 4 4 3 6 6 4 5 4 5 4
7 5 4 5 5 4 2 3 5 7 8 8 8 10 8 7 8 8 7 7 8 8 9 8 5 5 6 5 4 3 4 4 3 5 6 8 8 7 4 4 4 4 5 4 4 3 4 5 5
7 7 7 6 6 5 4 4 5 6 7 8 8 10 9 8 7 6 6 6 7 7 9 9 6 5 6 5 3 2 3 2 2 5 6 8 9 9 5 3 3 5 3 4 6 5 4 5 5
7 7 7 7 7 6 5 6 7 7 6 6 7 8 7 8 7 7 5 6 7 6 8 9 7 5 6 4 2 3 3 2 3 4 5 5 6 7 6 3 4 4 4 4 5 5 5 3 4
5 6 7 6 7 7 7 7 7 6 5 6 6 6 6 8 9 8 6 6 6 6 7 8 8 6 5 3 2 2 2 1 2 2 5 3 4 5 4 3 4 3 3 4 5 4 6 4 4
7 7 6 7 8 6 8 8 7 7 6 5 6 5 5 6 7 8 7 6 5 5 5 7 7 7 6 4 2 2 2 0 2 1 2 2 4 4 5 4 4 4 2 3 4 4 4 4 4
6 6 7 7 8 7 9 7 9 9 6 6 6 6 6 6 7 7 6 5 4 4 4 5 6 7 7 5 2 2 2 1 1 1 2 1 1 2 3 4 4 4 3 3 3 4 5 4 4
6 5 6 7 6 6 7 6 6 9 7 7 6 6 7 6 6 6 5 5 4 4 4 5 6 7 7 5 3 1 1 0 1 1 2 1 2 1 0 3 4 4 3 3 4 4 3 3 4
4 6 6 6 5 5 7 6 6 8 8 8 7 7 7 7 7 7 6 5 5 5 5 4 5 6 6 5 4 1 0 1 0 1 1 1 2 2 2 1 3 3 2 2 3 3 3 3 3
5 8 7 7 6 4 6 7 6 5 8 8 8 8 8 7 7 7 7 6 6 6 5 4 5 5 4 3 3 3 2 1 1 1 1 2 2 2 3 2 2 2 2 2 2 3 3 2 2
8 6 4 4 3 3 6 6 6 7 9 9 9 9 9 7 7 7 6 6 6 5 4 4 5 4 3 2 3 3 3 3 3 2 2 3 2 1 2 1 1 1 1 1 2 3 3 2 2
9 7 2 2 4 5 5 6 8 10 10 10 10 9 8 8 7 7 6 6 5 5 3 3 4 4 3 3 3 2 3 2 2 2 2 3 2 1 1 1 2 1 1 2 2 2 3 2 2
5 4 3 2 1 3 6 10 9 9 9 9 9 9 8 8 7 7 6 5 5 4 4 3 3 3 2 3 2 2 1 1 1 2 2 2 2 1 1 2 3 3 2 2 2 2 3 3 1
6 3 3 3 3 3 7 9 9 11 9 9 9 8 8 7 8 7 6 5 5 4 3 3 3 2 1 1 1 1 1 1 1 2 3 3 3 2 2 3 4 4 3 4 2 3 3 4 2
7 5 3 3 2 2 4 4 9 12 10 10 9 9 8 8 7 7 6 6 6 5 4 3 2 2 2 1 1 1 1 2 2 2 2 3 4 4 4 5 4 4 3 3 4 3 3 4 4
4 5 4 3 2 1 3 5 9 10 9 9 10 9 8 8 7 7 6 6 6 5 5 4 3 3 3 2 3 2 2 2 3 3 3 4 5 4 4 4 4 4 3 4 4 4 4 4 5
Wind_Direction
214 220 233 239 238 236 93 73 71 56 61 51 45 63 68 54 55 90 128 97 109 111 112 102 96 94 91 89 85 82 78 75 71 67 63 60 56 50 44 38 32 27 23 20 17 16 7 5 360
245 238 246 228 234 147 87 76 71 65 67 68 58 60 71 66 78 97 106 101 107 106 103 99 96 93 89 86 84 81 76 72 68 65 61 56 50 43 35 29 24 19 16 12 6 3 357 352 347
244 246 250 242 248 111 100 91 85 71 61 67 76 63 54 65 80 99 118 112 100 99 97 98 96 93 90 87 84 80 76 71 67 63 58 52 45 39 33 25 17 13 8 3 2 360 350 342 337
247 258 244 244 105 94 102 108 104 94 75 68 82 76 65 62 89 115 121 111 106 104 102 102 100 96 93 90 85 81 77 70 64 58 52 46 38 33 28 22 16 9 1 357 356 353 345 336 330
260 257 249 192 108 99 101 105 96 89 78 75 86 90 84 84 102 114 114 113 112 112 113 113 110 105 100 95 89 82 77 70 62 54 46 40 34 29 24 17 10 4 357 353 349 342 337 332 327
282 263 267 131 114 96 93 92 91 91 88 89 101 101 97 106 105 107 107 103 108 115 118 123 124 120 114 105 96 89 79 70 63 55 44 31 21 19 19 21 13 3 355 349 343 338 332 324 317
276 289 259 129 112 100 92 83 82 88 73 61 91 105 116 114 113 113 107 97 101 113 126 137 142 135 127 118 112 106 98 90 82 71 46 311 281 271 274 58 29 8 354 342 335 326 318 309 300
277 295 319 114 114 101 88 89 87 92 90 84 84 110 127 128 125 116 112 116 121 123 130 140 143 141 144 139 136 137 140 148 155 193 256 267 264 247 237 162 73 7 340 326 317 306 296 291 285
265 294 346 79 103 110 111 98 93 102 99 83 76 101 122 130 129 131 134 131 126 123 126 124 120 125 141 149 149 165 173 190 204 217 243 273 277 221 210 129 131 292 297 298 295 290 285 283 276
212 227 89 67 86 119 119 101 114 110 103 99 100 109 125 137 143 150 156 149 143 140 138 125 125 134 133 114 143 171 159 172 196 106 319 318 354 347 16 130 206 259 274 281 280 282 283 275 260
221 219 78 97 88 125 117 90 72 89 97 117 124 131 141 149 155 159 155 141 134 133 124 125 139 134 133 124 117 107 129 144 98 49 24 17 5 350 26 66 183 274 281 304 309 282 283 294 298
206 160 161 103 97 88 87 78 72 93 100 114 129 137 149 158 158 156 143 129 123 115 118 107 111 123 110 91 94 168 114 81 80 46 20 40 13 345 17 5 26 341 354 357 334 313 319 337 328
203 161 131 109 136 118 106 120 117 104 108 120 132 142 155 161 160 151 134 136 133 136 132 109 88 79 95 104 260 85 92 53 71 64 5 45 29 9 1 351 26 4 3 357 341 321 344 335 319
165 146 149 167 168 156 144 148 147 125 126 132 139 148 157 152 150 144 145 145 139 145 133 122 100 88 90 113 104 80 79 121 64 58 7 43 40 19 357 356 14 13 354 342 334 327 330 315 319
172 167 169 182 176 145 141 152 132 128 135 137 145 147 145 148 154 154 149 148 141 141 129 118 113 97 72 59 42 71 69 68 65 64 19 27 40 21 27 8 5 2 352 351 345 337 334 327 324
197 194 180 172 173 140 150 127 128 140 146 149 155 145 149 157 169 158 155 151 138 135 126 127 125 112 95 76 46 33 54 46 44 54 39 17 18 25 38 13 353 353 358 354 332 348 346 340 337
196 185 174 163 171 159 164 144 147 145 153 156 153 151 159 162 168 148 152 145 132 135 137 136 125 117 107 103 106 60 66 62 50 59 53 21 13 15 26 2 344 358 4 1 346 3 348 337 330
186 170 165 164 162 158 152 137 142 150 148 141 144 148 157 158 154 142 140 130 132 139 131 125 124 123 118 114 102 90 70 45 65 71 70 40 6 10 11 346 358 12 7 359 346 347 334 322 317
189 172 162 155 148 154 147 131 131 131 141 142 140 140 155 152 144 134 133 127 136 143 136 136 143 137 120 107 96 91 84 39 77 73 72 34 13 15 2 347 348 1 6 2 357 349 336 337 336
178 164 160 146 148 149 133 121 118 117 118 118 122 123 132 129 132 133 137 137 146 141 147 149 142 135 125 121 127 132 117 87 107 86 97 43 33 23 357 358 345 350 358 10 352 350 342 335 347
161 170 160 154 149 155 137 126 127 122 118 108 98 97 97 95 104 114 118 127 137 138 145 135 133 132 128 136 117 83 85 307 96 138 124 118 84 52 8 344 338 338 2 8 354 2 357 340 333
168 167 159 164 167 162 152 129 131 130 120 111 99 87 84 86 97 105 108 112 126 131 129 133 134 133 132 134 124 144 180 160 157 141 134 213 158 125 37 331 323 329 353 15 355 13 353 345 338
148 162 183 193 197 183 155 135 136 128 121 108 100 93 91 82 85 93 90 90 92 98 100 110 121 120 125 135 142 198 298 305 354 81 119 263 183 165 161 287 306 325 351 20 1 351 351 353 353
178 188 200 215 217 197 171 137 128 123 117 109 100 96 89 81 83 87 85 83 81 85 91 95 106 107 117 141 162 187 224 268 285 269 220 271 236 191 177 206 281 306 341 3 344 330 341 337 339
214 210 192 196 193 174 158 122 114 111 106 103 98 90 86 82 78 81 90 97 98 100 106 114 117 120 138 183 209 200 211 238 243 238 233 253 269 212 183 177 261 278 315 315 310 318 312 310 327
212 224 233 204 176 165 167 120 116 104 97 97 93 89 87 82 79 78 86 98 107 112 121 132 135 141 161 205 230 230 214 218 240 235 248 249 256 231 150 193 259 262 290 309 301 298 303 309 329
225 213 235 273 225 161 128 114 121 118 113 106 99 91 84 83 84 80 79 90 105 113 119 121 130 144 167 217 229 249 278 238 259 276 266 266 267 251 202 247 250 234 223 259 303 299 306 318 329
271 260 214 214 194 169 145 153 155 147 136 123 111 101 94 89 84 77 67 62 75 88 95 101 100 111 138 233 271 293 308 305 293 283 291 301 297 289 256 252 255 248 222 205 223 271 288 303 275
205 225 235 254 229 161 152 117 136 145 138 128 118 112 107 97 89 83 74 62 61 67 79 85 85 76 64 337 301 339 296 300 295 285 288 290 283 270 260 251 252 254 242 219 203 227 254 278 288
258 255 246 256 252 179 134 111 116 125 124 121 119 113 103 96 93 88 79 72 64 61 57 58 55 57 47 8 350 348 351 320 297 288 277 276 276 273 271 278 272 267 258 246 226 225 241 243 258
Height
1497 1498 1499 1502 1504 1505 1504 1497 1491 1490 1490 1491 1490 1491 1495 1500 1505 1517 1517 1516 1516 1516 1516 1517 1518 1518 1519 1520 1521 1521 1522 1523 1523 1524 1524 1524 1524 1525 1525 1525 1525 1525 1525 1525 1525 1525 1525 1525 1525
1498 1499 1502 1502 1504 1509 1505 1495 1494 1492 1492 1492 1493 1494 1497 1503 1509 1513 1515 1517 1517 1517 1518 1518 1519 1519 1520 1521 1521 1522 1522 1523 1523 1524 1524 1524 1524 1524 1525 1525 1525 1525 1525 1525 1525 1525 1525 1524 1524
1498 1500 1502 1500 1501 1504 1503 1495 1494 1493 1493 1493 1495 1498 1503 1508 1511 1514 1517 1518 1519 1518 1519 1520 1520 1520 1521 1521 1522 1522 1523 1523 1523 1524 1524 1524 1524 1524 1524 1524 1524 1524 1524 1524 1524 1524 1524 1524 1524
1500 1501 1501 1501 1500 1495 1494 1494 1493 1494 1494 1494 1496 1502 1508 1511 1513 1515 1518 1519 1520 1520 1520 1521 1521 1521 1522 1522 1523 1523 1523 1523 1524 1524 1524 1524 1524 1524 1524 1524 1523 1523 1523 1523 1523 1522 1522 1523 1523
1500 1500 1500 1501 1497 1492 1491 1492 1493 1494 1495 1496 1499 1506 1512 1515 1516 1517 1519 1520 1521 1521 1521 1522 1522 1523 1523 1523 1524 1524 1524 1524 1524 1524 1524 1524 1524 1523 1523 1523 1523 1522 1522 1521 1521 1521 1521 1521 1521
1501 1499 1503 1505 1498 1492 1491 1493 1494 1496 1497 1498 1501 1507 1514 1517 1518 1519 1521 1522 1523 1523 1523 1523 1524 1524 1524 1524 1525 1525 1525 1524 1524 1524 1524 1524 1524 1523 1523 1522 1522 1521 1521 1520 1520 1520 1520 1520 1520
1501 1499 1501 1501 1500 1496 1493 1494 1495 1497 1498 1500 1502 1507 1514 1517 1519 1521 1522 1523 1524 1525 1525 1525 1525 1525 1525 1526 1526 1526 1525 1525 1525 1525 1524 1524 1524 1523 1523 1522 1522 1521 1520 1520 1519 1519 1519 1519 1519
1500 1500 1500 1500 1501 1499 1495 1495 1496 1498 1500 1502 1503 1507 1514 1518 1520 1522 1524 1525 1526 1526 1527 1527 1527 1527 1526 1527 1527 1527 1527 1526 1526 1526 1525 1525 1524 1524 1523 1522 1522 1521 1520 1519 1518 1518 1518 1518 1518
1500 1503 1504 1500 1500 1498 1496 1496 1498 1499 1501 1502 1504 1508 1513 1517 1520 1523 1524 1525 1527 1528 1528 1529 1529 1529 1529 1528 1528 1528 1527 1527 1527 1526 1526 1526 1525 1525 1524 1523 1522 1521 1520 1519 1518 1518 1517 1517 1517
1499 1504 1501 1496 1496 1496 1496 1497 1498 1499 1501 1504 1507 1511 1515 1518 1520 1522 1524 1525 1527 1528 1529 1530 1530 1530 1531 1531 1530 1529 1529 1529 1528 1528 1527 1527 1526 1526 1525 1524 1523 1521 1520 1519 1518 1517 1517 1516 1516
1495 1498 1495 1495 1496 1497 1497 1498 1498 1500 1502 1505 1508 1512 1515 1518 1520 1522 1524 1525 1527 1529 1530 1530 1531 1531 1531 1531 1531 1531 1531 1530 1530 1529 1528 1527 1526 1526 1525 1524 1523 1521 1520 1519 1518 1517 1517 1517 1516
1494 1496 1495 1496 1498 1497 1498 1499 1500 1501 1503 1505 1508 1512 1515 1518 1520 1522 1524 1526 1528 1529 1530 1531 1532 1532 1532 1532 1531 1531 1531 1531 1530 1529 1528 1527 1527 1526 1525 1524 1523 1522 1521 1519 1518 1517 1517 1516 1516
1494 1495 1496 1497 1498 1498 1499 1500 1501 1502 1504 1506 1509 1512 1515 1517 1519 1522 1524 1526 1527 1529 1530 1532 1532 1533 1532 1532 1532 1532 1531 1531 1531 1529 1529 1528 1527 1526 1525 1524 1522 1521 1520 1519 1517 1517 1516 1515 1515
1492 1494 1496 1497 1497 1498 1499 1499 1500 1502 1504 1506 1509 1512 1515 1517 1519 1521 1523 1525 1527 1529 1530 1531 1532 1533 1533 1532 1532 1532 1532 1532 1531 1530 1529 1528 1527 1526 1525 1524 1522 1521 1520 1518 1517 1516 1515 1514 1514
1493 1494 1496 1496 1496 1497 1499 1501 1500 1502 1504 1507 1509 1512 1515 1517 1519 1521 1523 1525 1526 1528 1529 1531 1532 1533 1533 1533 1533 1533 1532 1532 1531 1530 1529 1528 1527 1526 1525 1523 1522 1521 1519 1518 1517 1516 1515 1514 1513
1493 1496 1501 1496 1495 1497 1503 1510 1501 1502 1504 1507 1509 1512 1515 1517 1519 1521 1523 1524 1526 1528 1529 1531 1532 1533 1532 1532 1532 1532 1532 1532 1531 1530 1529 1528 1527 1526 1525 1523 1522 1521 1519 1518 1517 1515 1514 1513 1513
1495 1502 1502 1497 1493 1495 1501 1507 1501 1502 1504 1506 1508 1510 1514 1516 1518 1520 1522 1524 1526 1527 1529 1530 1531 1532 1532 1532 1532 1532 1532 1531 1531 1530 1528 1527 1526 1526 1524 1523 1522 1520 1519 1517 1516 1515 1514 1513 1512
1501 1499 1500 1498 1494 1495 1499 1502 1500 1501 1503 1505 1507 1509 1512 1515 1517 1519 1522 1524 1525 1527 1528 1529 1531 1532 1532 1532 1532 1532 1532 1531 1531 1530 1528 1527 1526 1525 1524 1523 1522 1520 1519 1517 1516 1515 1514 1513 1512
1492 1495 1498 1495 1491 1495 1499 1500 1501 1501 1503 1505 1507 1509 1512 1514 1516 1518 1521 1523 1525 1527 1528 1529 1530 1531 1532 1532 1532 1532 1531 1531 1530 1530 1528 1527 1526 1525 1524 1523 1522 1520 1519 1518 1516 1515 1514 1513 1512
1492 1497 1498 1494 1490 1494 1498 1502 1500 1502 1504 1505 1507 1509 1512 1514 1516 1518 1520 1522 1524 1526 1528 1528 1529 1530 1531 1531 1532 1531 1531 1531 1530 1529 1528 1527 1526 1525 1524 1523 1522 1521 1520 1518 1517 1515 1514 1513 1513
1493 1495 1496 1496 1493 1493 1500 1508 1505 1504 1506 1507 1508 1510 1512 1515 1516 1518 1520 1521 1523 1525 1527 1528 1529 1530 1530 1531 1531 1531 1531 1531 1530 1530 1528 1527 1526 1525 1523 1522 1522 1521 1520 1519 1518 1516 1515 1514 1513
1497 1490 1491 1493 1499 1504 1501 1523 1512 1506 1507 1508 1510 1512 1514 1516 1517 1519 1520 1521 1522 1524 1526 1527 1528 1529 1530 1530 1530 1530 1530 1530 1530 1529 1529 1527 1526 1525 1523 1522 1522 1521 1520 1519 1518 1517 1515 1514 1513
1492 1489 1491 1494 1498 1504 1502 1515 1516 1507 1511 1510 1511 1513 1515 1517 1518 1519 1521 1522 1522 1524 1525 1526 1527 1528 1529 1529 1530 1530 1530 1530 1530 1529 1528 1528 1526 1525 1524 1523 1522 1521 1520 1519 1518 1517 1516 1515 1514
1488 1490 1492 1493 1497 1515 1504 1512 1521 1511 1510 1511 1512 1515 1516 1518 1519 1520 1521 1522 1523 1523 1524 1526 1527 1528 1528 1529 1529 1529 1529 1529 1529 1528 1528 1527 1527 1525 1524 1523 1522 1521 1520 1519 1518 1517 1516 1515 1514
1489 1496 1510 1516 1518 1517 1499 1508 1518 1508 1507 1510 1513 1516 1518 1519 1520 1521 1522 1522 1523 1524 1524 1525 1526 1527 1528 1528 1529 1529 1528 1528 1528 1528 1527 1527 1526 1526 1524 1523 1522 1521 1520 1519 1518 1517 1516 1515 1515
1489 1494 1513 1525 1524 1516 1500 1511 1513 1506 1509 1512 1514 1517 1519 1520 1521 1522 1523 1523 1523 1524 1525 1525 1526 1527 1527 1527 1528 1528 1528 1528 1527 1527 1527 1526 1526 1525 1524 1523 1522 1521 1520 1519 1518 1517 1516 1515 1515
1489 1492 1493 1504 1506 1513 1508 1511 1510 1508 1511 1513 1516 1518 1520 1522 1522 1523 1524 1524 1524 1524 1525 1525 1526 1526 1527 1527 1527 1527 1527 1527 1527 1526 1526 1526 1525 1524 1523 1522 1521 1520 1519 1518 1517 1516 1515 1515 1514
1485 1486 1493 1504 1517 1521 1515 1514 1516 1513 1513 1513 1516 1519 1521 1523 1523 1524 1524 1525 1525 1525 1525 1526 1526 1526 1526 1526 1526 1526 1526 1526 1525 1525 1524 1524 1524 1523 1522 1521 1520 1519 1518 1517 1516 1515 1515 1514 1513
1486 1487 1487 1492 1494 1511 1522 1518 1498 1505 1508 1512 1516 1519 1521 1523 1524 1525 1525 1525 1525 1525 1526 1526 1526 1526 1526 1526 1526 1525 1525 1524 1524 1523 1523 1522 1522 1521 1520 1520 1519 1518 1517 1516 1515 1514 1513 1513 1512
1478 1479 1482 1496 1496 1494 1508 1519 1498 1503 1507 1511 1516 1519 1522 1523 1525 1525 1526 1526 1526 1526 1526 1526 1526 1525 1525 1525 1525 1524 1524 1523 1522 1522 1521 1521 1520 1519 1519 1518 1517 1517 1516 1515 1514 1513 1512 1511 1510